N11816 KORF-KFFA

Flight info

Callsign N11816
Flight time 0h 38m
Altitude 3500
Route SOUTHEAST BOUND
Aircraft C152/L-SFG/C

Departure

Time 2026-05-08 00:04
Airport Norfolk International Airport (KORF)

Arrival

Time 2026-05-08 00:42
Airport First Flight Airport (KFFA)
Time Latitude Longitude Altitude Speed Heading
2026-05-07 23:47 36.88685 -76.20157 -3 ft 0 kts 213°
2026-05-07 23:59 36.88681 -76.20170 -3 ft 6 kts 259°
2026-05-07 23:59 36.88705 -76.20251 -3 ft 15 kts 339°
2026-05-07 23:59 36.88731 -76.20247 -3 ft 6 kts 37°
2026-05-07 23:59 36.88791 -76.20175 -3 ft 17 kts 29°
2026-05-08 00:00 36.88858 -76.20300 -3 ft 23 kts 287°
2026-05-08 00:00 36.88762 -76.20469 -3 ft 29 kts 217°
2026-05-08 00:00 36.88592 -76.20631 -3 ft 30 kts 216°
2026-05-08 00:00 36.88488 -76.20726 -4 ft 4 kts 272°
2026-05-08 00:01 36.88492 -76.20732 -4 ft 0 kts
2026-05-08 00:02 36.88521 -76.20737 -4 ft 10 kts 343°
2026-05-08 00:02 36.88613 -76.20808 -4 ft 17 kts
2026-05-08 00:03 36.88728 -76.20693 -2 ft 27 kts 36°
2026-05-08 00:03 36.88988 -76.20442 0 ft 71 kts 38°
2026-05-08 00:03 36.89415 -76.19997 127 ft 85 kts 39°
2026-05-08 00:03 36.89864 -76.19520 294 ft 89 kts 38°
2026-05-08 00:04 36.90354 -76.19032 418 ft 90 kts 37°
2026-05-08 00:04 36.90685 -76.18404 574 ft 88 kts 80°
2026-05-08 00:04 36.90528 -76.17683 721 ft 88 kts 130°
2026-05-08 00:04 36.90055 -76.17236 882 ft 86 kts 153°
2026-05-08 00:05 36.89512 -76.16893 1007 ft 87 kts 156°
2026-05-08 00:05 36.88967 -76.16567 1139 ft 88 kts 160°
2026-05-08 00:05 36.88405 -76.16284 1275 ft 87 kts 160°
2026-05-08 00:05 36.87856 -76.15956 1406 ft 88 kts 151°
2026-05-08 00:06 36.87393 -76.15440 1523 ft 90 kts 133°
2026-05-08 00:06 36.86923 -76.14936 1647 ft 90 kts 155°
2026-05-08 00:06 36.86367 -76.14587 1789 ft 88 kts 156°
2026-05-08 00:06 36.85815 -76.14250 1903 ft 90 kts 155°
2026-05-08 00:07 36.85260 -76.13884 2011 ft 91 kts 154°
2026-05-08 00:07 36.84699 -76.13514 2113 ft 92 kts 154°
2026-05-08 00:07 36.84131 -76.13143 2212 ft 92 kts 155°
2026-05-08 00:07 36.83562 -76.12774 2311 ft 92 kts 155°
2026-05-08 00:08 36.82999 -76.12412 2406 ft 92 kts 155°
2026-05-08 00:08 36.82430 -76.12049 2503 ft 92 kts 155°
2026-05-08 00:08 36.81863 -76.11689 2600 ft 91 kts 155°
2026-05-08 00:08 36.81297 -76.11332 2696 ft 91 kts 155°
2026-05-08 00:09 36.80733 -76.10978 2791 ft 90 kts 155°
2026-05-08 00:09 36.80290 -76.10459 2893 ft 91 kts 109°
2026-05-08 00:09 36.80077 -76.09715 2995 ft 91 kts 110°
2026-05-08 00:09 36.79870 -76.08970 3098 ft 91 kts 109°
2026-05-08 00:10 36.79670 -76.08219 3199 ft 91 kts 109°
2026-05-08 00:10 36.79476 -76.07466 3298 ft 91 kts 108°
2026-05-08 00:10 36.79285 -76.06713 3394 ft 91 kts 108°
2026-05-08 00:10 36.79091 -76.05943 3455 ft 95 kts 108°
2026-05-08 00:11 36.78843 -76.05161 3479 ft 99 kts 131°
2026-05-08 00:11 36.78341 -76.04567 3492 ft 101 kts 138°
2026-05-08 00:11 36.77827 -76.03955 3498 ft 103 kts 138°
2026-05-08 00:11 36.77300 -76.03340 3503 ft 104 kts 138°
2026-05-08 00:12 36.76767 -76.02727 3502 ft 104 kts 138°
2026-05-08 00:12 36.76185 -76.02202 3500 ft 104 kts 156°
2026-05-08 00:12 36.75506 -76.01897 3506 ft 104 kts 164°
2026-05-08 00:12 36.74814 -76.01628 3502 ft 104 kts 163°
2026-05-08 00:13 36.74127 -76.01345 3504 ft 104 kts 162°
2026-05-08 00:13 36.73444 -76.01043 3502 ft 104 kts 161°
2026-05-08 00:13 36.72773 -76.00733 3503 ft 104 kts 160°
2026-05-08 00:13 36.72096 -76.00415 3495 ft 104 kts 160°
2026-05-08 00:14 36.71425 -76.00096 3495 ft 103 kts 160°
2026-05-08 00:14 36.70754 -75.99777 3507 ft 104 kts 160°
2026-05-08 00:14 36.70077 -75.99454 3510 ft 105 kts 160°
2026-05-08 00:14 36.69394 -75.99129 3505 ft 105 kts 160°
2026-05-08 00:15 36.68712 -75.98804 3501 ft 105 kts 160°
2026-05-08 00:15 36.68032 -75.98480 3504 ft 105 kts 160°
2026-05-08 00:15 36.67351 -75.98154 3498 ft 104 kts 160°
2026-05-08 00:15 36.66675 -75.97832 3495 ft 104 kts 160°
2026-05-08 00:16 36.66002 -75.97511 3494 ft 103 kts 160°
2026-05-08 00:16 36.65332 -75.97191 3496 ft 103 kts 160°
2026-05-08 00:16 36.64663 -75.96873 3497 ft 103 kts 160°
2026-05-08 00:16 36.63992 -75.96553 3499 ft 103 kts 160°
2026-05-08 00:17 36.63323 -75.96234 3503 ft 103 kts 160°
2026-05-08 00:17 36.62652 -75.95915 3505 ft 103 kts 160°
2026-05-08 00:17 36.61980 -75.95596 3503 ft 103 kts 160°
2026-05-08 00:17 36.61309 -75.95276 3503 ft 103 kts 160°
2026-05-08 00:18 36.60620 -75.94953 3418 ft 110 kts 161°
2026-05-08 00:18 36.59888 -75.94621 3294 ft 113 kts 161°
2026-05-08 00:18 36.59138 -75.94293 3168 ft 115 kts 162°
2026-05-08 00:18 36.58380 -75.93972 3042 ft 115 kts 162°
2026-05-08 00:19 36.57617 -75.93661 2915 ft 115 kts 163°
2026-05-08 00:19 36.56853 -75.93359 2788 ft 115 kts 164°
2026-05-08 00:19 36.56086 -75.93068 2663 ft 115 kts 164°
2026-05-08 00:19 36.55326 -75.92790 2534 ft 115 kts 165°
2026-05-08 00:20 36.54550 -75.92519 2433 ft 116 kts 166°
2026-05-08 00:20 36.53766 -75.92256 2317 ft 117 kts 166°
2026-05-08 00:20 36.52976 -75.92002 2188 ft 117 kts 167°
2026-05-08 00:20 36.52187 -75.91761 2054 ft 117 kts 168°
2026-05-08 00:21 36.51394 -75.91530 1937 ft 117 kts 168°
2026-05-08 00:21 36.50599 -75.91308 1814 ft 117 kts 169°
2026-05-08 00:21 36.49802 -75.91097 1684 ft 117 kts 169°
2026-05-08 00:21 36.49013 -75.90898 1585 ft 114 kts 170°
2026-05-08 00:22 36.48251 -75.90715 1540 ft 108 kts 171°
2026-05-08 00:22 36.47525 -75.90548 1520 ft 104 kts 171°
2026-05-08 00:22 36.46821 -75.90392 1511 ft 102 kts 171°
2026-05-08 00:22 36.46128 -75.90244 1507 ft 101 kts 172°
2026-05-08 00:23 36.45448 -75.90105 1505 ft 100 kts 172°
2026-05-08 00:23 36.44763 -75.89971 1503 ft 99 kts 172°
2026-05-08 00:23 36.44079 -75.89843 1502 ft 99 kts 173°
2026-05-08 00:23 36.43396 -75.89720 1502 ft 99 kts 173°
2026-05-08 00:24 36.42715 -75.89604 1502 ft 99 kts 174°
2026-05-08 00:24 36.42031 -75.89494 1503 ft 99 kts 174°
2026-05-08 00:24 36.41347 -75.89389 1504 ft 99 kts 174°
2026-05-08 00:24 36.40661 -75.89290 1504 ft 99 kts 175°
2026-05-08 00:25 36.39975 -75.89197 1503 ft 99 kts 175°
2026-05-08 00:25 36.39287 -75.89108 1502 ft 99 kts 174°
2026-05-08 00:25 36.38631 -75.88849 1501 ft 100 kts 156°
2026-05-08 00:25 36.38018 -75.88472 1501 ft 100 kts 154°
2026-05-08 00:26 36.37401 -75.88080 1501 ft 100 kts 154°
2026-05-08 00:26 36.36781 -75.87695 1502 ft 100 kts 155°
2026-05-08 00:26 36.36155 -75.87316 1503 ft 100 kts 155°
2026-05-08 00:26 36.35529 -75.86943 1503 ft 100 kts 155°
2026-05-08 00:27 36.34902 -75.86573 1502 ft 100 kts 156°
2026-05-08 00:27 36.34276 -75.86203 1502 ft 100 kts 156°
2026-05-08 00:27 36.33649 -75.85834 1501 ft 100 kts 156°
2026-05-08 00:27 36.33022 -75.85466 1502 ft 100 kts 156°
2026-05-08 00:28 36.32395 -75.85097 1501 ft 100 kts 156°
2026-05-08 00:28 36.31768 -75.84729 1500 ft 100 kts 155°
2026-05-08 00:28 36.31142 -75.84361 1501 ft 100 kts 156°
2026-05-08 00:28 36.30516 -75.83993 1502 ft 100 kts 156°
2026-05-08 00:29 36.29890 -75.83625 1502 ft 100 kts 156°
2026-05-08 00:29 36.29263 -75.83257 1501 ft 100 kts 156°
2026-05-08 00:29 36.28637 -75.82889 1502 ft 100 kts 156°
2026-05-08 00:29 36.28009 -75.82521 1502 ft 100 kts 156°
2026-05-08 00:30 36.27381 -75.82152 1503 ft 100 kts 156°
2026-05-08 00:30 36.26753 -75.81783 1503 ft 100 kts 156°
2026-05-08 00:30 36.26125 -75.81415 1502 ft 100 kts 156°
2026-05-08 00:30 36.25498 -75.81047 1502 ft 100 kts 156°
2026-05-08 00:31 36.24878 -75.80683 1502 ft 100 kts 156°
2026-05-08 00:31 36.24247 -75.80313 1502 ft 100 kts 156°
2026-05-08 00:31 36.23618 -75.79944 1502 ft 100 kts 156°
2026-05-08 00:31 36.22988 -75.79575 1500 ft 100 kts 156°
2026-05-08 00:32 36.22362 -75.79208 1500 ft 100 kts 156°
2026-05-08 00:32 36.21735 -75.78840 1501 ft 100 kts 156°
2026-05-08 00:32 36.21108 -75.78473 1501 ft 100 kts 156°
2026-05-08 00:32 36.20480 -75.78105 1501 ft 100 kts 156°
2026-05-08 00:33 36.19854 -75.77738 1501 ft 99 kts 156°
2026-05-08 00:33 36.19229 -75.77372 1502 ft 100 kts 156°
2026-05-08 00:33 36.18602 -75.77005 1503 ft 100 kts 156°
2026-05-08 00:33 36.17973 -75.76637 1503 ft 100 kts 156°
2026-05-08 00:34 36.17345 -75.76270 1502 ft 100 kts 156°
2026-05-08 00:34 36.16725 -75.75906 1502 ft 100 kts 156°
2026-05-08 00:34 36.16096 -75.75538 1502 ft 100 kts 156°
2026-05-08 00:34 36.15466 -75.75170 1502 ft 100 kts 156°
2026-05-08 00:35 36.14837 -75.74802 1502 ft 100 kts 156°
2026-05-08 00:35 36.14210 -75.74432 1504 ft 100 kts 155°
2026-05-08 00:35 36.13576 -75.74072 1501 ft 100 kts 156°
2026-05-08 00:35 36.12939 -75.73722 1505 ft 100 kts 156°
2026-05-08 00:36 36.12318 -75.73353 1498 ft 100 kts 156°
2026-05-08 00:36 36.11687 -75.72991 1497 ft 100 kts 155°
2026-05-08 00:36 36.11057 -75.72624 1489 ft 100 kts 156°
2026-05-08 00:36 36.10430 -75.72255 1486 ft 100 kts 154°
2026-05-08 00:37 36.09813 -75.71852 1488 ft 100 kts 153°
2026-05-08 00:37 36.09201 -75.71442 1500 ft 99 kts 153°
2026-05-08 00:37 36.08590 -75.71031 1486 ft 101 kts 152°
2026-05-08 00:38 36.07366 -75.70201 1506 ft 101 kts 151°
2026-05-08 00:38 36.06761 -75.69771 1505 ft 100 kts 151°
2026-05-08 00:38 36.06145 -75.69354 1459 ft 100 kts 154°
2026-05-08 00:38 36.05521 -75.68962 1393 ft 101 kts 155°
2026-05-08 00:39 36.04857 -75.68689 1321 ft 101 kts 169°
2026-05-08 00:39 36.04170 -75.68557 1265 ft 100 kts 174°
2026-05-08 00:39 36.03477 -75.68587 1174 ft 101 kts 194°
2026-05-08 00:39 36.02826 -75.68862 1129 ft 97 kts 205°
2026-05-08 00:40 36.02213 -75.69217 1046 ft 99 kts 207°
2026-05-08 00:40 36.01618 -75.69605 1026 ft 94 kts 211°
2026-05-08 00:40 36.01070 -75.69979 1061 ft 85 kts 210°
2026-05-08 00:40 36.00549 -75.70273 1058 ft 82 kts 191°
2026-05-08 00:41 36.00177 -75.70194 1039 ft 85 kts 151°
2026-05-08 00:41 35.99869 -75.69586 1001 ft 85 kts 105°
2026-05-08 00:41 35.99660 -75.68661 859 ft 86 kts 98°
2026-05-08 00:41 35.99833 -75.67972 689 ft 87 kts 48°
2026-05-08 00:42 36.00183 -75.67696 489 ft 86 kts 24°
2026-05-08 00:42 36.00713 -75.67502 222 ft 74 kts 12°
2026-05-08 00:42 36.01173 -75.67355 69 ft 63 kts 13°
2026-05-08 00:42 36.01536 -75.67236 14 ft 34 kts 15°
2026-05-08 00:43 36.01583 -75.67210 14 ft 8 kts 201°
2026-05-08 00:43 36.01500 -75.67244 15 ft 11 kts 193°
2026-05-08 00:43 36.01456 -75.67196 17 ft 10 kts 166°
2026-05-08 00:43 36.01440 -75.67181 17 ft 1 kts